If you wish to contribute or participate in the discussions about articles you are invited to join SKYbrary as a registered user

 Actions

Kalaleh Airport

From SKYbrary Wiki

OINE
Airport
ICAO: OINE – IATA: KLM
Summary
Name Kalaleh Airport
Region Middle East
Territory Iran IR.gif
Location Barbar Qaleh, Golestan Province
Serving Kalaleh
Elevation 129.54 m
425 ft129.54 m
Coordinates 37° 22' 59.90" N, 55° 27' 4.91" E
Runways
Designator Length Width Surface ROPS
10/28 2218 m7,276.903 ft
28 m91.864 ft
ASP /


METAR
Observation OINE 050600Z 24006KT 8000 SCT030 OVC090 24/19 Q1011
Station KALALEH
Date/Time 05 June 2020 06:00:00
Wind direction 240°
Wind speed 06 kts
Lowest cloud amount scattered clouds
Temperature 24°C
Dew point 19°C
Humidity 73%
QNH 1011 hPa
Weather condition n/a

Airport 4km2.16 nm
4,000 m
13,123.36 ft
west of the city of Kalaleh, Iran.

Climatology

Cold desert climate (Köppen climate classification Bwk).

Maps

Terrain

Loading map...

Airport Layout

Loading map...


Accidents & Serious Incidents at or in vicinity of OINE

None on SKYbrary